00:00:04, +017, degC
00:00:05, +017, degC
00:00:06, +018, degC
00:00:07, +017, degC
00:00:08, +017, degC
00:00:09, +017, degC
00:00:10, +017, degC
00:00:11, +018, degC
00:00:12, +017, degC
00:00:13, +017, degC
00:00:14, +018, degC
00:00:15, +017, degC
00:00:16, +018, degC
00:00:17, +017, degC
00:00:18, +017, degC
00:00:19, +017, degC
00:00:20, +017, degC
00:00:21, +018, degC
00:00:22, +017, degC
00:00:23, +018, degC
00:00:24, +026, degC
00:00:25, +026, degC
00:00:26, +025, degC
00:00:27, +025, degC
00:00:00, +026, degC
00:00:01, +025, degC
00:00:02, +026, degC
00:00:03, +025, degC
00:00:04, +026, degC
00:00:05, +026, degC
00:00:06, +026, degC
00:00:07, +026, degC
00:00:08, +026, degC
00:00:09, +026, degC
00:00:10, +026, degC
00:00:11, +026, degC
00:00:12, +026, degC
00:00:13, +026, degC
00:00:14, +026, degC
00:00:15, +026, degC
00:00:16, +026, degC
00:00:17, +027, degC
00:00:18, +027, degC
00:00:19, +027, degC
00:00:20, +027, degC
00:00:21, +028, degC
00:00:22, +029, degC
00:00:23, +029, degC
00:00:24, +029, degC
00:00:25, +029, degC
00:00:26, +030, degC
00:00:27, +029, degC
00:00:28, +030, degC
00:00:29, +030, degC
00:00:30, +030, degC
00:00:31, +031, degC
00:00:32, +031, degC
00:00:33, +032, degC
00:00:34, +033, degC
00:00:35, +033, degC
00:00:36, +033, degC
00:00:37, +033, degC
00:00:38, +035, degC
00:00:39, +036, degC
00:00:40, +035, degC
00:00:41, +036, degC
00:00:42, +037, degC
00:00:43, +037, degC
00:00:44, +038, degC
00:00:45, +039, degC
00:00:46, +039, degC
00:00:47, +040, degC
00:00:48, +041, degC
00:00:49, +041, degC
00:00:50, +041, degC
00:00:51, +042, degC
00:00:52, +042, degC
00:00:53, +042, degC
00:00:54, +043, degC
00:00:55, +043, degC
00:00:56, +042, degC
00:00:57, +045, degC
00:00:58, +045, degC
00:00:59, +045, degC
00:01:00, +045, degC
00:01:01, +046, degC
00:01:02, +045, degC
00:01:03, +046, degC
00:01:04, +047, degC
00:01:05, +048, degC
00:01:06, +048, degC
00:01:07, +049, degC
00:01:08, +049, degC
00:01:09, +048, degC
00:01:10, +049, degC
00:01:11, +051, degC
00:01:12, +051, degC
00:01:13, +052, degC
00:01:14, +051, degC
00:01:15, +051, degC
00:01:16, +052, degC
00:01:17, +054, degC
00:01:18, +055, degC
00:01:19, +056, degC
00:01:20, +056, degC
00:01:21, +057, degC
00:01:22, +057, degC
00:01:23, +057, degC
00:01:24, +058, degC
00:01:25, +058, degC
00:01:26, +058, degC
00:01:27, +059, degC
00:01:28, +061, degC
00:01:29, +060, degC
00:01:30, +061, degC
00:01:31, +062, degC
00:01:32, +064, degC
00:01:33, +065, degC
00:01:34, +065, degC
00:01:35, +065, degC
00:01:36, +065, degC
00:01:37, +066, degC
00:01:38, +066, degC
00:01:39, +066, degC
00:01:40, +067, degC
00:01:41, +068, degC
00:01:42, +068, degC
00:01:43, +069, degC
00:01:44, +070, degC
00:01:45, +071, degC
00:01:46, +071, degC
00:01:47, +072, degC
00:01:48, +072, degC
00:01:49, +073, degC
00:01:50, +074, degC
00:01:51, +075, degC
00:01:52, +075, degC
00:01:53, +076, degC
00:01:54, +077, degC
00:01:55, +077, degC
00:01:56, +078, degC
00:01:57, +079, degC
00:01:58, +080, degC
00:01:59, +080, degC
00:02:00, +080, degC
00:02:01, +080, degC
00:02:02, +082, degC
00:02:03, +083, degC
00:02:04, +084, degC
00:02:05, +085, degC
00:02:06, +086, degC
00:02:07, +086, degC
00:02:08, +087, degC
00:02:09, +087, degC
00:02:10, +088, degC
00:02:11, +089, degC
00:02:12, +090, degC
00:02:13, +091, degC
00:02:14, +091, degC
00:02:15, +092, degC
00:02:16, +093, degC
00:02:17, +093, degC
00:02:18, +094, degC
00:02:19, +094, degC
00:02:20, +095, degC
00:02:21, +095, degC
00:02:22, +096, degC
00:02:23, +097, degC
00:02:24, +098, degC
00:02:25, +098, degC
00:02:26, +100, degC
00:02:27, +100, degC
00:02:28, +101, degC
00:02:29, +102, degC
00:02:30, +102, degC
00:02:31, +103, degC
00:02:32, +104, degC
00:02:33, +105, degC
00:02:34, +105, degC
00:02:35, +106, degC
00:02:36, +107, degC
00:02:37, +108, degC
00:02:38, +108, degC
00:02:39, +109, degC
00:02:40, +109, degC
00:02:41, +110, degC
00:02:42, +111, degC
00:02:43, +112, degC
00:02:44, +112, degC
00:02:45, +113, degC
00:02:46, +114, degC
00:02:47, +114, degC
00:02:48, +114, degC
00:02:49, +115, degC
00:02:50, +116, degC
00:02:51, +117, degC
00:02:52, +118, degC
00:02:53, +118, degC
00:02:54, +119, degC
00:02:55, +118, degC
00:02:56, +120, degC
00:02:57, +120, degC
00:02:58, +121, degC
00:02:59, +122, degC
00:03:00, +122, degC
00:03:01, +123, degC
00:03:02, +124, degC
00:03:03, +124, degC
00:03:04, +125, degC
00:03:05, +126, degC
00:03:06, +127, degC
00:03:07, +127, degC
00:03:08, +127, degC
00:03:09, +127, degC
00:03:10, +128, degC
00:03:11, +128, degC
00:03:12, +128, degC
00:03:13, +129, degC
00:03:14, +130, degC
00:03:15, +131, degC
00:03:16, +132, degC
00:03:17, +132, degC
00:03:18, +132, degC
00:03:19, +133, degC
00:03:20, +133, degC
00:03:21, +134, degC
00:03:22, +134, degC
00:03:23, +135, degC
00:03:24, +136, degC
00:03:25, +136, degC
00:03:26, +137, degC
00:03:27, +137, degC
00:03:28, +138, degC
00:03:29, +138, degC
00:03:30, +139, degC
00:03:31, +140, degC
00:03:32, +141, degC
00:03:33, +141, degC
00:03:34, +141, degC
00:03:35, +142, degC
00:03:36, +143, degC
00:03:37, +143, degC
00:03:38, +143, degC
00:03:39, +143, degC
00:03:40, +144, degC
00:03:41, +145, degC
00:03:42, +145, degC
00:03:43, +146, degC
00:03:44, +147, degC
00:03:45, +147, degC
00:03:46, +148, degC
00:03:47, +149, degC
00:03:48, +150, degC
00:03:49, +150, degC
00:03:50, +150, degC
00:03:51, +149, degC
00:03:52, +151, degC
00:03:53, +151, degC
00:03:54, +152, degC
00:03:55, +150, degC
00:03:56, +153, degC
00:03:57, +151, degC
00:03:58, +152, degC
00:03:59, +153, degC
00:04:00, +153, degC
00:04:01, +154, degC
00:04:02, +155, degC
00:04:03, +155, degC
00:04:04, +156, degC
00:04:05, +156, degC
00:04:06, +156, degC
00:04:07, +157, degC
00:04:08, +157, degC
00:04:09, +156, degC
00:04:10, +157, degC
00:04:11, +158, degC
00:04:12, +160, degC
00:04:13, +161, degC
00:04:14, +160, degC
00:04:15, +161, degC
00:04:16, +161, degC
00:04:17, +163, degC
00:04:18, +163, degC
00:04:19, +163, degC
00:04:20, +162, degC
00:04:21, +163, degC
00:04:22, +164, degC
00:04:23, +164, degC
00:04:24, +165, degC
00:04:25, +166, degC
00:04:26, +167, degC
00:04:27, +167, degC
00:04:28, +168, degC
00:04:29, +169, degC
00:04:30, +169, degC
00:04:31, +170, degC
00:04:32, +162, degC
00:04:33, +162, degC
00:04:34, +162, degC
00:04:35, +162, degC
00:04:36, +163, degC
00:04:37, +164, degC
00:04:38, +164, degC
00:04:39, +164, degC
00:04:40, +164, degC
00:04:41, +166, degC
00:04:42, +167, degC
00:04:43, +168, degC
00:04:44, +167, degC
00:04:45, +165, degC
00:04:46, +167, degC
00:04:47, +169, degC
00:04:48, +169, degC
00:04:49, +168, degC
00:04:50, +170, degC
00:04:51, +170, degC
00:04:52, +172, degC
00:04:53, +173, degC
00:04:54, +174, degC
00:04:55, +174, degC
00:04:56, +174, degC
00:04:57, +173, degC
00:04:58, +174, degC
00:04:59, +176, degC
00:05:00, +177, degC
00:05:01, +175, degC
00:05:02, +175, degC
00:05:03, +177, degC
00:05:04, +179, degC
00:05:05, +180, degC
00:05:06, +181, degC
00:05:07, +179, degC
00:05:08, +180, degC
00:05:09, +183, degC
00:05:10, +185, degC
00:05:11, +186, degC
00:05:12, +187, degC
00:05:13, +187, degC
00:05:14, +187, degC
00:05:15, +189, degC
00:05:16, +188, degC
00:05:17, +188, degC
00:05:18, +187, degC
00:05:19, +189, degC
00:05:20, +191, degC
00:05:21, +192, degC
00:05:22, +193, degC
00:05:23, +195, degC
00:05:24, +195, degC
00:05:25, +196, degC
00:05:26, +196, degC
00:05:27, +196, degC
00:05:28, +197, degC
00:05:29, +198, degC
00:05:30, +198, degC
00:05:31, +200, degC
00:05:32, +201, degC
00:05:33, +200, degC
00:05:34, +201, degC
00:05:35, +200, degC
00:05:36, +200, degC
00:05:37, +202, degC
00:05:38, +204, degC
00:05:39, +203, degC
00:05:40, +205, degC
00:05:41, +206, degC
00:05:42, +207, degC
00:05:43, +207, degC
00:05:44, +206, degC
00:05:45, +206, degC
00:05:46, +208, degC
00:05:47, +210, degC
00:05:48, +211, degC
00:05:49, +213, degC
00:05:50, +215, degC
00:05:51, +214, degC
00:05:52, +214, degC
00:05:53, +216, degC
00:05:54, +218, degC
00:05:55, +217, degC
00:05:56, +218, degC
00:05:57, +219, degC
00:05:58, +219, degC
00:05:59, +217, degC
00:06:00, +219, degC
00:06:01, +219, degC
00:06:02, +219, degC
00:06:03, +217, degC
00:06:04, +220, degC
00:06:05, +221, degC
00:06:06, +222, degC
00:06:07, +222, degC
00:06:08, +224, degC
00:06:09, +225, degC
00:06:10, +225, degC
00:06:11, +223, degC
00:06:12, +226, degC
00:06:13, +236, degC
00:06:14, +235, degC
00:06:15, +235, degC
00:06:16, +235, degC
00:06:17, +235, degC
00:06:18, +235, degC
00:06:19, +236, degC
00:06:20, +235, degC
00:06:21, +234, degC
00:06:22, +235, degC
00:06:23, +238, degC
00:06:24, +238, degC
00:06:25, +238, degC
00:06:26, +237, degC
00:06:27, +235, degC
00:06:28, +237, degC
00:06:29, +238, degC
00:06:30, +236, degC
00:06:31, +235, degC
00:06:32, +234, degC
00:06:33, +233, degC
00:06:34, +233, degC
00:06:35, +234, degC
00:06:36, +233, degC
00:06:37, +234, degC
00:06:38, +233, degC
00:06:39, +232, degC
00:06:40, +233, degC
00:06:41, +235, degC
00:06:42, +235, degC
00:06:43, +233, degC
00:06:44, +233, degC
00:06:45, +233, degC
00:06:46, +232, degC
00:06:47, +229, degC
00:06:48, +226, degC
00:06:49, +228, degC
00:06:50, +231, degC
00:06:51, +230, degC
00:06:52, +226, degC
00:06:53, +227, degC
00:06:54, +229, degC
00:06:55, +232, degC
00:06:56, +231, degC
00:06:57, +230, degC
00:06:58, +230, degC
00:06:59, +227, degC
00:07:00, +227, degC
00:07:01, +226, degC
00:07:02, +226, degC
00:07:03, +225, degC
00:07:04, +214, degC
00:07:05, +206, degC
00:07:06, +205, degC
00:07:07, +209, degC
00:07:08, +213, degC
00:07:09, +207, degC
00:07:10, +208, degC
00:07:11, +198, degC
00:07:12, +201, degC
00:07:13, +201, degC
00:07:14, +199, degC
00:07:15, +204, degC
00:07:16, +192, degC
00:07:17, +200, degC
00:07:18, +197, degC
00:07:19, +187, degC
00:07:20, +192, degC
00:07:21, +191, degC
00:07:22, +196, degC
00:07:23, +182, degC
00:07:24, +182, degC
00:07:25, +176, degC
00:07:26, +173, degC
00:07:27, +169, degC
00:07:28, +178, degC
00:07:29, +173, degC
00:07:30, +166, degC
00:07:31, +170, degC
00:07:32, +172, degC
00:07:33, +160, degC
00:07:34, +163, degC
00:07:35, +162, degC
00:07:36, +166, degC
00:07:37, +163, degC
00:07:38, +167, degC
00:07:39, +159, degC
00:07:40, +157, degC
00:07:41, +153, degC
00:07:42, +148, degC
00:07:43, +144, degC
00:07:44, +153, degC
00:07:45, +145, degC
00:07:46, +148, degC
00:07:47, +144, degC
00:07:48, +137, degC
00:07:49, +137, degC
00:07:50, +139, degC
00:07:51, +133, degC
00:07:52, +123, degC
00:07:53, +129, degC
00:07:54, +139, degC
00:07:55, +137, degC
00:07:56, +127, degC
00:07:57, +139, degC
00:07:58, +124, degC
00:07:59, +137, degC
00:08:00, +126, degC
00:08:01, +130, degC
00:08:02, +122, degC
00:08:03, +091, degC
00:08:04, +070, degC
00:08:05, +068, degC
